AirNav   Air Wisconsin pilot careers
 
 1112 users online  

21D Lake Elmo Airport
St Paul, Minnesota, USA

GOING TO ST PAUL?


FAA INFORMATION EFFECTIVE 01 FEBRUARY 2018

Location

FAA Identifier: 21D
Lat/Long: 44-59-50.9729N / 092-51-20.4529W
44-59.849548N / 092-51.340882W
44.9974925 / -92.8556814
(estimated)
Elevation: 932.9 ft. / 284.3 m (surveyed)
Variation: 01E (2010)
From city: 9 miles E of ST PAUL, MN
Time zone: UTC -6 (UTC -5 during Daylight Saving Time)
Zip code: 55082

Airport Operations

Airport use: Open to the public
Activation date: 10/1951
Control tower: no
ARTCC: MINNEAPOLIS CENTER
FSS: PRINCETON FLIGHT SERVICE STATION
NOTAMs facility: 21D (NOTAM-D service available)
Attendance: APR-OCT 0700-1900, NOV-MAR 0700-1700
Pattern altitude: 1932.9 ft. MSL
Wind indicator: lighted, ADDITIONAL LIGHTED WIND-T
Segmented circle: no
Lights: MIRL RY 14/32 PRESET TO LOW, TO INCR INTST AND ACTVT REIL RYS 14 & 32 AND PAPI RY 32 - CTAF.
Beacon: white-green (lighted land airport)
Operates sunset to sunrise.

Airport Communications

CTAF/UNICOM: 122.8
WX AWOS-3: 120.075 (651-779-5949)
MINNEAPOLIS APPROACH: 121.2
MINNEAPOLIS DEPARTURE: 121.2
CLEARANCE DELIVERY: 118.625
WX ASOS at STP (9 nm SW): PHONE 651-298-1410
WX AWOS-3 at SGS (11 nm SW): 119.425 (651-457-8120)
WX AWOS-3 at RNH (16 nm NE): 120.0 (715-246-3202)
WX ASOS at MSP (17 nm SW): PHONE 612-713-4174
WX AWOS-3 at ANE (17 nm NW): PHONE 763-780-9025
WX AWOS-3 at OEO (20 nm N): 119.925 (715-294-3845)

Nearby radio navigation aids

VOR radial/distance  VOR name  Freq  Var
MSPr067/17.3MINNEAPOLIS VOR/DME115.3002E
GEPr106/23.7GOPHER VORTAC117.3006E
FGTr026/26.0FARMINGTON VORTAC115.7006E
FCMr067/27.0FLYING CLOUD VOR/DME117.7001E

 
NDB name  Hdg/Dist  Freq  Var  ID
HOPEY023/8.340003EPPI .--. .--. ..
CAMBRIDGE152/37.735001ECBG -.-. -... --.

Airport Services

Fuel available: 100LL
SELF SVC FUEL AVBL 24 HR WITH CREDIT CARD.
Parking: hangars and tiedowns
Airframe service: MAJOR
Powerplant service: MAJOR
Bottled oxygen: NONE
Bulk oxygen: NONE

Runway Information

Runway 14/32

Dimensions: 2849 x 75 ft. / 868 x 23 m
Surface: asphalt, in good condition
Weight bearing capacity: 
Single wheel: 11.0
Runway edge lights: medium intensity
RUNWAY 14  RUNWAY 32
Latitude: 44-59.974828N44-59.629163N
Longitude: 092-51.651227W092-51.204762W
Elevation: 922.8 ft.926.0 ft.
Gradient: 0.1%0.1%
Traffic pattern: leftleft
Runway heading: 136 magnetic, 137 true316 magnetic, 317 true
Markings: nonprecision, in good conditionbasic, in good condition
Visual slope indicator: 4-light PAPI on right (3.00 degrees glide path)
Runway end identifier lights: yesyes
Touchdown point: yes, no lightsyes, no lights
Obstructions: 13 ft. road, 440 ft. from runway, 260 ft. right of centerline, 18:1 slope to clear25 ft. road, 353 ft. from runway, 264 ft. right of centerline, 10:1 slope to clear

Runway 4/22

Dimensions: 2496 x 75 ft. / 761 x 23 m
Surface: asphalt, in good condition
Weight bearing capacity: 
Single wheel: 13.0
RUNWAY 4  RUNWAY 22
Latitude: 44-59.744773N45-00.062878N
Longitude: 092-51.424563W092-51.058333W
Elevation: 923.9 ft.932.9 ft.
Gradient: 0.4%0.4%
Traffic pattern: leftleft
Runway heading: 038 magnetic, 039 true218 magnetic, 219 true
Markings: nonprecision, in good conditionbasic, in good condition
Touchdown point: yes, no lightsyes, no lights
Obstructions: 64 ft. trees, 1474 ft. from runway, 114 ft. right of centerline, 19:1 slope to clearnone

Airport Ownership and Management from official FAA records

Ownership: Publicly-owned
Owner: METROPOLITAN AIRPORT CMSN
6040 28TH AVENUE SO.
MINNEAPOLIS, MN 55450
Phone 612-726-8100
Manager: JOE HARRIS
644 BAYFIELD STREET
ST PAUL, MN 55107
Phone 651-224-4306
MGR EMAIL: JOE.HARRIS@MSPMAC.ORG

Airport Operational Statistics

Aircraft based on the field: 192
Single engine airplanes: 183
Multi engine airplanes: 6
Helicopters: 3
    
Aircraft operations: avg 73/day *
55% transient general aviation
40% local general aviation
4% air taxi
<1% military
* for 12-month period ending 31 October 2016

Additional Remarks

ULTRALIGHT OPNS PROHIBITED.
FOR NOISE ABATEMENT PROCEDURES, WWW.MACNOISE.COM/PILOTS. ACFT PLEASE FOLLOW VOLUNTARY NOISE ABATEMENT PROCEDURES.
DEER, BIRDS & WILDLIFE ON & INVOF ARPT.

Instrument Procedures

NOTE: All procedures below are presented as PDF files. If you need a reader for these files, you should download the free Adobe Reader.

NOT FOR NAVIGATION. Please procure official charts for flight.
FAA instrument procedures published for use between 1 February 2018 at 0901Z and 1 March 2018 at 0900Z.

 
STARs - Standard Terminal Arrivals
AGUDE FIVE   download (248KB)
 
IAPs - Instrument Approach Procedures
RNAV (GPS) RWY 32   download (234KB)
NDB RWY 04   download (280KB)
NOTE: Special Alternate Minimums apply   download (25KB)
NOTE: Special Take-Off Minimums/Departure Procedures apply   download

Other nearby airports with instrument procedures:

KSTP - St. Paul Downtown Airport / Holman Field (9 nm SW)
KSGS - South St Paul Municipal Airport-Richard E Fleming Field (11 nm SW)
KRNH - New Richmond Regional Airport (16 nm NE)
KMSP - Minneapolis-St Paul International/Wold-Chamberlain Airport (17 nm SW)
KANE - Anoka County-Blaine Airport (Janes Field) (17 nm NW)
KOEO - L O Simenstad Municipal Airport (20 nm N)
 
Loc | Ops | Rwys | IFR | FBO | Links
Com | Nav | Svcs | Stats | Notes

AirNav Hotels Sweepstakes
 
Area around 21D (Lake Elmo Airport)
 
Road maps at: MapQuest Bing Google
 
Aerial photo
WARNING: Photo may not be current or correct
Aerial photo of 21D (Lake Elmo Airport)
Photo by Ed Wells
Photo taken 10-Oct-2010
looking northeast.

Do you have a better or more recent aerial photo of Lake Elmo Airport that you would like to share? If so, please send us your photo.

 
Sectional chart

 
Airport distance calculator
Flying to Lake Elmo Airport? Find the distance to fly.

From to 21D

Sunrise and sunset
Times for 24-Feb-2018
 Local
(UTC-6)
 Zulu
(UTC)
Morning civil twilight06:2912:29
Sunrise06:5912:59
Sunset17:5123:51
Evening civil twilight18:2000:20

Current date and time
Zulu (UTC)  24-Feb-2018 15:55:32
Local (UTC-6)  24-Feb-2018 09:55:32
 
METAR
K21D 241535Z AUTO 07004KT 2 1/2SM BR SCT004 A3009 RMK AO2
KSTP 
9nm SW 
241453Z 00000KT 2SM BR SCT005 M09/M11 A3014 RMK AO2 SLP217 I1001 I3001 T10891111 58016 $
KSGS 
15nm SW 
241535Z AUTO 00000KT 4SM BR CLR M09/M10 A3009 RMK AO2 T10881102
KRNH 
16nm NE 
241535Z AUTO 09005KT 1 1/4SM BR OVC001 M09/M11 A3011 RMK AO2 T10901106
KANE 
17nm NW 
241450Z 08004KT 2SM BR OVC003 M11/M13 A3011
KMSP 
17nm SW 
241515Z 08008KT 3SM BR BKN003 BKN020 M09/M10 A3009 RMK AO2 T10941100
KOEO 
20nm N 
241535Z AUTO 00000KT 2SM -SN OVC002 M10/M11 A3014 RMK AO2 T10991109
TAF
KRNH 
16nm NE 
241137Z 2412/2512 00000KT 1/4SM FZFG VV001 FM241500 10005KT P6SM BKN003 FM241800 10007KT P6SM BKN035 FM242300 09008KT 1 1/2SM -SN OVC015 FM250000 08010KT 1/2SM SN OVC008 FM250400 13007KT 3/4SM -SN OVC003 FM250600 27013KT 2SM -SN OVC008 FM250800 27015G25KT P6SM BKN010 FM251100 27015G24KT P6SM BKN030
KMSP 
17nm SW 
241412Z 2414/2518 09007KT 1/4SM FZFG VV002 FM241530 09007KT 3SM BR SCT008 BKN012 OVC100 FM241700 08008KT 6SM BR SCT015 OVC100 FM242200 07011KT 1/2SM SN FG VV006 FM242300 08010KT 1/4SM +SN FG VV003 FM250200 11008KT 1/2SM SN FG VV006 FM250400 05008KT 1 1/2SM -SN OVC007 FM250700 26013KT P6SM OVC015 FM251000 26012KT P6SM SCT040
NOTAMs
Click for the latest NOTAMs
NOTAMs are issued by the DoD/FAA and will open in a separate window not controlled by AirNav.

 

 
 

FBO, Fuel Providers, and Aircraft Ground Support

  
 Business Name 
 
 Contact 
 
 Services / Description 
 
Fuel Prices
 
Comments
  
Valters Aviation 651-777-1399
no information available

If you are affiliated with Valters Aviation and would like to show here your services, contact info, web link, logo, and more, click here
100LL
AS $4.79 
 Updated 21-Feb-2018
 
   4 read write
AS=Assisted/Self Service
Update Fuel Prices
 

Would you like to see your business listed on this page?

 If your business provides an interesting product or service to pilots, flight crews, aircraft, or users of the Lake Elmo Airport, you should consider listing it here.  To start the listing process, click on the button below
 
Add a business
 

Other Pages about Lake Elmo Airport

www.metroairports.org/...
PDF page(s) from the Minnesota Airport Directory
 
Update a link
 
Copyright © AirNav, LLC. All rights reserved. Privacy Policy  Contact